[[{"header":{"parameterUnit":"m.s-1","parameterCategory":1,"la1":30.2991,"la2":30.254,"lo1":-89.0895,"lo2":-89.0444,"dy":0.0017,"dx":0.0017,"nx":28,"ny":28,"refTime":"2025-03-07T09:00:00:Z","depth":0,"parameterNumber":2,"parameterNumberName":"U-component_of_WINDS"},"data":[0,0,0,0,0,0,0,0,0,0,0,0,0,0,0,0,0,0,0,0,0,0,0,0,0,0,0,0,0,0,0,0,0,0,0,0,0,0,0,0,0,0,0,0,0,0,0,0,0,0,0,0,0,0,0,0,0,0,-0.9426,-0.9426,0,-0.9384,-0.9384,-0.9383,-0.9361,-0.9361,-0.9361,-0.9361,-0.9317,-0.9315,-0.9314,0,0,0,0,0,0,0,0,0,0,0,0,0,-0.9487,-0.9486,-0.9426,-0.9426,-0.9425,-0.9384,-0.9384,-0.9383,-0.9361,-0.9361,-0.9361,-0.9361,-0.9317,-0.9316,-0.9314,0,0,0,0,0,0,0,0,0,0,0,0,0,-0.9454,-0.9485,-0.9427,-0.941,-0.9408,-0.9384,-0.9384,-0.9383,-0.9361,-0.9361,-0.9361,-0.9361,-0.9317,-0.9316,-0.9314,-0.9304,0,0,-0.9309,-0.9308,0,0,0,0,0,0,0,0,-0.9456,-0.9452,-0.9413,-0.9411,-0.9408,-0.9378,-0.9389,-0.9356,-0.9361,-0.9379,-0.9361,-0.9361,-0.9337,-0.9334,-0.9326,-0.9302,-0.93,-0.9309,-0.9308,-0.9307,-0.9306,0,0,0,0,0,0,0,-0.9458,-0.9454,-0.941,-0.9412,-0.9409,-0.9403,-0.9399,-0.9382,-0.9359,-0.9377,-0.9376,-0.9371,-0.9336,-0.9327,-0.9325,-0.9299,-0.9309,-0.9307,-0.9306,-0.9305,-0.9265,-0.9265,0,0,0,0,0,0,-0.9463,-0.9456,-0.9411,-0.9408,-0.9433,-0.9402,-0.9397,-0.9388,-0.9359,-0.9354,-0.9371,-0.937,-0.933,-0.9327,-0.9323,-0.9309,-0.9307,-0.9305,-0.9304,-0.9265,-0.9265,-0.9265,0,0,0,0,0,0,-0.9465,-0.946,-0.9413,-0.9432,-0.9425,-0.9401,-0.9391,-0.9387,-0.9379,-0.9354,-0.9349,-0.9367,-0.933,-0.9325,-0.9309,-0.9307,-0.9304,-0.9303,-0.9265,-0.9265,-0.9265,-0.9281,0,0,0,0,0,0,-0.9467,-0.946,-0.9457,-0.9432,-0.9424,-0.94,-0.9391,-0.9386,-0.9376,-0.9374,-0.9349,-0.9345,-0.933,-0.9312,-0.9307,-0.9304,-0.9301,-0.9265,-0.9265,-0.9265,-0.928,-0.9281,-0.9282,0,0,0,0,0,-0.9469,-0.9463,-0.9457,-0.9451,-0.9419,-0.94,-0.9395,-0.9379,-0.9376,-0.9371,-0.9356,-0.9346,-0.9308,-0.931,-0.9305,-0.9302,-0.9265,-0.9265,-0.9265,-0.928,-0.9281,-0.9282,0,0,0,0,0,0,-0.9488,-0.9459,-0.9452,-0.9438,-0.9422,-0.9396,-0.939,-0.9381,-0.9365,-0.9364,-0.9343,-0.9338,-0.9323,-0.9311,-0.9314,-0.929,-0.9285,-0.9284,-0.9299,-0.93,-0.9301,-0.9304,-0.93,0,0,0,0,0,-0.9491,-0.9478,-0.9453,-0.9443,-0.9435,-0.9414,-0.9405,-0.9394,-0.9376,-0.9369,-0.9352,-0.9334,-0.9318,-0.9308,-0.9292,-0.9279,-0.9272,-0.9274,-0.9275,-0.9275,-0.9275,-0.9266,-0.9266,-0.9264,-0.9264,-0.9264,0,0,-0.9496,-0.9479,-0.9472,-0.9446,-0.9432,-0.9419,-0.9409,-0.9395,-0.9384,-0.9366,-0.935,-0.9337,-0.9316,-0.93,-0.9293,-0.929,-0.9274,-0.9275,-0.9276,-0.9275,-0.9265,-0.9266,-0.9266,-0.9264,-0.9264,-0.9264,0,0,-0.9499,-0.9485,-0.9474,-0.946,-0.9439,-0.9425,-0.9423,-0.9399,-0.9389,-0.9372,-0.9358,-0.9345,-0.9319,-0.9304,-0.9294,-0.929,-0.928,-0.9285,-0.929,-0.9281,-0.9282,-0.9282,-0.928,-0.9279,-0.9285,-0.9285,-0.9285,0,-0.9508,-0.9487,-0.947,-0.9457,-0.9446,-0.9429,-0.9418,-0.9405,-0.938,-0.9372,-0.9369,-0.9335,-0.932,-0.9301,-0.93,-0.9292,-0.9288,-0.9288,-0.9283,-0.9283,-0.9283,-0.9281,-0.928,-0.9286,-0.9285,-0.9285,-0.9285,0,-0.9499,-0.9485,-0.9479,-0.9455,-0.9443,-0.9431,-0.9412,-0.9402,-0.9391,-0.9378,-0.936,-0.9341,-0.9321,-0.9316,-0.9305,-0.9295,-0.9293,-0.9287,-0.9282,-0.9284,-0.9282,-0.9281,-0.9287,-0.9286,-0.9286,-0.9286,0,0,-0.9513,-0.9479,-0.9477,-0.9466,-0.9441,-0.9429,-0.9416,-0.9397,-0.9388,-0.9372,-0.936,-0.9337,-0.9331,-0.9319,-0.9307,-0.9299,-0.9297,-0.9294,-0.9293,-0.9294,-0.9283,-0.9288,-0.9287,-0.929,-0.929,-0.929,-0.9285,0,-0.9511,-0.9487,-0.9471,-0.9453,-0.944,-0.9423,-0.9412,-0.9395,-0.9382,-0.9368,-0.9353,-0.9337,-0.9331,-0.9323,-0.9315,-0.9299,-0.9294,-0.9299,-0.9278,-0.9278,-0.9284,-0.9286,-0.9291,-0.9287,-0.9284,-0.9284,-0.9284,0,-0.9506,-0.949,-0.9471,-0.9447,-0.944,-0.943,-0.9411,-0.9398,-0.9378,-0.9369,-0.9356,-0.9343,-0.9328,-0.9324,-0.9303,-0.9307,-0.9297,-0.9288,-0.9287,-0.9284,-0.9281,-0.9283,-0.9286,-0.9285,-0.9282,-0.9282,-0.9282,0,-0.9517,-0.949,-0.9475,-0.9466,-0.9438,-0.9431,-0.9419,-0.94,-0.9389,-0.9371,-0.9364,-0.9345,-0.9335,-0.9321,-0.9303,-0.9302,-0.9283,-0.9278,-0.9275,-0.9275,-0.9271,-0.9272,-0.9272,-0.9266,-0.9266,-0.9266,-0.9266,0,-0.9517,-0.9506,-0.9479,-0.947,-0.9457,-0.9438,-0.9425,-0.9412,-0.9395,-0.9382,-0.9367,-0.9355,-0.9333,-0.9319,-0.9305,-0.9289,-0.9285,-0.9277,-0.9273,-0.9278,-0.9279,-0.9271,-0.927,-0.9266,-0.9266,-0.9266,-0.9266,0,-0.9527,-0.9509,-0.9491,-0.9466,-0.9459,-0.9451,-0.9429,-0.9419,-0.9405,-0.9389,-0.9384,-0.9362,-0.9344,-0.9325,-0.9301,-0.9292,-0.9276,-0.9272,-0.9283,-0.9281,-0.9278,-0.9279,-0.9273,-0.9272,-0.9267,-0.9268,-0.9268,0,-0.9527,-0.9518,-0.9492,-0.9483,-0.9471,-0.9456,-0.9445,-0.9426,-0.9415,-0.9392,-0.9384,-0.9365,-0.9349,-0.9322,-0.9303,-0.9284,-0.9279,-0.9278,-0.9276,-0.9281,-0.9278,-0.9279,-0.9277,-0.9279,-0.9279,-0.9279,-0.9279,0,-0.953,-0.9522,-0.9506,-0.9487,-0.9474,-0.9459,-0.9442,-0.9435,-0.9413,-0.9401,-0.9383,-0.9371,-0.9346,-0.9327,-0.9306,-0.9293,-0.9282,-0.928,-0.9278,-0.9283,-0.9289,-0.9285,-0.9285,-0.928,-0.928,-0.928,-0.928,-0.928,-0.9535,-0.9526,-0.9506,-0.9489,-0.9475,-0.946,-0.9449,-0.9433,-0.9418,-0.9396,-0.9386,-0.9368,-0.9348,-0.9319,-0.9306,-0.9291,-0.9288,-0.9286,-0.9285,-0.9284,-0.9285,-0.9292,-0.9287,-0.9287,-0.9287,-0.9287,-0.9287,0,-0.9537,-0.9523,-0.9508,-0.9485,-0.9472,-0.9463,-0.9444,-0.9433,-0.9417,-0.94,-0.9384,-0.9363,-0.9345,-0.9325,-0.9305,-0.9297,-0.9292,-0.9293,-0.9293,-0.929,-0.9289,-0.9293,-0.9297,-0.9297,-0.9297,-0.9297,-0.9297,-0.9297,-0.9536,-0.952,-0.9509,-0.9486,-0.9472,-0.9454,-0.9444,-0.943,-0.9416,-0.9393,-0.9377,-0.9364,-0.9346,-0.9325,-0.9307,-0.9302,-0.9295,-0.9298,-0.9291,-0.9291,-0.929,-0.9289,-0.9292,-0.9296,-0.9296,-0.9292,-0.9292,-0.9292]},{"header":{"parameterUnit":"m.s-1","parameterCategory":1,"la1":30.2991,"la2":30.254,"lo1":-89.0895,"lo2":-89.0444,"dy":0.0017,"dx":0.0017,"nx":28,"ny":28,"refTime":"2025-03-07T09:00:00:Z","depth":0,"parameterNumber":3,"parameterNumberName":"V-component_of_WINDS"},"data":[0,0,0,0,0,0,0,0,0,0,0,0,0,0,0,0,0,0,0,0,0,0,0,0,0,0,0,0,0,0,0,0,0,0,0,0,0,0,0,0,0,0,0,0,0,0,0,0,0,0,0,0,0,0,0,0,0,0,3.9397,3.9397,0,3.9435,3.9435,3.9435,3.9485,3.9486,3.9487,3.9487,3.952,3.9521,3.9521,0,0,0,0,0,0,0,0,0,0,0,0,0,3.9365,3.9365,3.9397,3.9397,3.9398,3.9434,3.9435,3.9435,3.9485,3.9486,3.9487,3.9488,3.952,3.9521,3.9521,0,0,0,0,0,0,0,0,0,0,0,0,0,3.9388,3.9365,3.9397,3.9427,3.943,3.9434,3.9435,3.9436,3.9485,3.9486,3.9487,3.9488,3.952,3.9521,3.9521,3.9497,0,0,3.9521,3.9521,0,0,0,0,0,0,0,0,3.9387,3.9389,3.9422,3.9425,3.9428,3.9457,3.9436,3.9456,3.9484,3.9464,3.9487,3.9489,3.9498,3.95,3.9504,3.9498,3.95,3.9521,3.9521,3.9521,3.9521,0,0,0,0,0,0,0,3.9385,3.9388,3.9412,3.9423,3.9426,3.9438,3.9442,3.944,3.9473,3.9466,3.9469,3.9473,3.95,3.9504,3.9505,3.95,3.9521,3.9521,3.9521,3.9521,3.9481,3.9479,0,0,0,0,0,0,3.938,3.9386,3.941,3.9413,3.9411,3.9437,3.9443,3.9446,3.9473,3.9479,3.9472,3.9476,3.9503,3.9505,3.9506,3.9483,3.9521,3.9521,3.9522,3.9482,3.948,3.9479,0,0,0,0,0,0,3.9379,3.9381,3.9409,3.9401,3.9405,3.9437,3.944,3.9446,3.945,3.9478,3.9484,3.9471,3.9504,3.9506,3.95,3.9485,3.9522,3.9522,3.9483,3.9481,3.948,3.9434,0,0,0,0,0,0,3.9378,3.9381,3.9372,3.94,3.9405,3.9402,3.9439,3.9446,3.9451,3.9456,3.9478,3.9483,3.9505,3.95,3.95,3.9486,3.9522,3.9485,3.9482,3.948,3.9437,3.9431,3.9426,0,0,0,0,0,3.9376,3.9356,3.9372,3.9374,3.9396,3.9401,3.9404,3.9431,3.945,3.9442,3.946,3.9482,3.9486,3.9498,3.95,3.9485,3.9486,3.9483,3.948,3.944,3.9432,3.9426,0,0,0,0,0,0,3.9322,3.936,3.9378,3.9366,3.9381,3.941,3.94,3.9422,3.943,3.9434,3.9466,3.947,3.9461,3.9472,3.9485,3.9465,3.949,3.9487,3.9458,3.9452,3.9446,3.9444,3.9522,0,0,0,0,0,3.931,3.9312,3.9344,3.9331,3.9338,3.9368,3.9371,3.9391,3.9407,3.9412,3.943,3.9443,3.9448,3.945,3.9456,3.9439,3.9446,3.943,3.9424,3.9419,3.9417,3.9413,3.9407,3.947,3.947,3.947,0,0,3.9282,3.9303,3.9302,3.9321,3.9334,3.9337,3.9372,3.9372,3.9374,3.9412,3.9409,3.9422,3.9439,3.9429,3.9425,3.9438,3.9401,3.9416,3.9412,3.9412,3.9409,3.9403,3.9398,3.9468,3.9469,3.9469,0,0,3.9234,3.9249,3.9242,3.9256,3.9277,3.9298,3.9296,3.9323,3.9335,3.9332,3.9362,3.9364,3.937,3.9383,3.9389,3.935,3.9372,3.935,3.9321,3.9316,3.9311,3.9307,3.9295,3.9291,3.9348,3.9348,3.9348,0,3.9196,3.9202,3.9234,3.9234,3.9242,3.928,3.9273,3.9284,3.9305,3.9309,3.9324,3.9336,3.9349,3.9344,3.9335,3.9338,3.9338,3.9348,3.931,3.9306,3.9302,3.9292,3.9287,3.9345,3.9345,3.9346,3.9346,0,3.9157,3.9161,3.9152,3.9175,3.9182,3.9177,3.9209,3.9212,3.9232,3.9251,3.925,3.9268,3.928,3.9279,3.9297,3.9277,3.9285,3.9304,3.9329,3.9293,3.9284,3.928,3.9342,3.9342,3.9343,3.9344,0,0,3.9074,3.9118,3.9115,3.9128,3.9156,3.9159,3.9157,3.9171,3.9174,3.9187,3.9188,3.9194,3.9214,3.9221,3.9241,3.9237,3.9208,3.9257,3.9258,3.9249,3.919,3.9177,3.9172,3.9223,3.9222,3.9221,3.919,0,3.9033,3.9035,3.9065,3.9058,3.9063,3.91,3.9099,3.9116,3.9134,3.9141,3.916,3.9166,3.9189,3.9195,3.9192,3.9212,3.9197,3.9214,3.9223,3.9223,3.922,3.9167,3.9152,3.9121,3.9186,3.9185,3.9185,0,3.8984,3.9,3.8994,3.9026,3.9029,3.9028,3.9045,3.9051,3.9071,3.9085,3.9096,3.912,3.9121,3.9145,3.9147,3.9158,3.9164,3.9175,3.9174,3.9177,3.9203,3.917,3.9112,3.9108,3.9179,3.9179,3.918,0,3.8928,3.8946,3.8947,3.8956,3.8993,3.8991,3.9006,3.9028,3.9036,3.905,3.9056,3.9069,3.9077,3.9086,3.9114,3.9128,3.9114,3.9139,3.9126,3.9125,3.9122,3.9122,3.9066,3.9122,3.9122,3.9122,3.9122,0,3.888,3.8875,3.8923,3.8923,3.892,3.8955,3.895,3.8968,3.8988,3.8993,3.9024,3.9027,3.9063,3.907,3.9091,3.9091,3.9093,3.9105,3.9111,3.9103,3.9102,3.9108,3.9111,3.9121,3.9121,3.9122,3.9122,0,3.8816,3.8847,3.8851,3.8887,3.8896,3.8892,3.8923,3.8924,3.8946,3.8951,3.8954,3.8988,3.8998,3.9027,3.9043,3.9057,3.9052,3.9062,3.9046,3.905,3.9037,3.9039,3.8984,3.8979,3.9037,3.9036,3.9036,0,3.8784,3.8782,3.8819,3.8826,3.8841,3.885,3.886,3.8894,3.8902,3.8928,3.8927,3.8941,3.8954,3.8968,3.8994,3.9007,3.9019,3.8999,3.9021,3.9014,3.9021,3.9022,3.9023,3.8994,3.8993,3.8993,3.8992,0,3.8724,3.8741,3.8755,3.8774,3.8786,3.8802,3.882,3.8823,3.8862,3.8869,3.8882,3.8893,3.8912,3.8926,3.8944,3.8959,3.8982,3.8985,3.8983,3.8976,3.8968,3.8975,3.9035,3.8986,3.8987,3.8987,3.8988,3.8988,3.8677,3.8679,3.8707,3.8722,3.874,3.8757,3.8761,3.8785,3.8797,3.8818,3.8837,3.8848,3.8872,3.8899,3.8913,3.8922,3.8934,3.893,3.893,3.8929,3.8927,3.8966,3.8925,3.8925,3.8925,3.8925,3.8926,0,3.8622,3.8643,3.8656,3.8682,3.8694,3.8718,3.874,3.8748,3.8759,3.8779,3.8793,3.8809,3.8823,3.8851,3.8867,3.887,3.8881,3.8873,3.8874,3.8878,3.8914,3.8915,3.8864,3.8864,3.8864,3.8864,3.8864,3.8864,3.8594,3.86,3.862,3.8636,3.8656,3.867,3.8681,3.8697,3.8714,3.8732,3.8745,3.8764,3.8788,3.8807,3.8822,3.883,3.8835,3.8824,3.8835,3.8869,3.8874,3.888,3.8882,3.8824,3.8824,3.8799,3.8798,3.8798]}]]